DELTA 1 DEB, 7079

Orbit data source: Space-Track

DELTA 1 DEB, 7079 is space debris in SSO originally from a launch on Tue, 06 Nov 1973 UTC launched from the Air Force Western Test Range (AFWTR). Debris objects in space refer to the collection of defunct objects orbiting the Earth. Examples of debris include non-operational satellites, rocket bodies, and fragments generated from explosions, collisions, or faulty payload assembly.

Loading next visibility...
Identifier
7079, 1973-086BX
Orbit
SSO
Country
Flag of USUS
Related business
Manufacturer
Unknown
Mission
Spacecraft
Bus & Motor
Unknown
Mass
Unknown
Launch date (UTC)
1973-11-06 (53 years ago)
Launch vehicle
Unknown
Launch site
Air Force Western Test Range (AFWTR)
Object type
Payload
Rocket body
Debris
Shape & HBR
Unknown shape, 0.3 m
Radar Cross Section
Medium (>0.1 m² and <1 m²)

Expand to show TLE details & history
Last TLE update: 13 hours ago

TLE from 13 hours ago
0 DELTA 1 DEB
1 07079U 73086BX  26263.37100291 -.00000056  00000-0 -10132-3 0  9992
2 07079 101.9275 226.1634 0039627  28.4121 126.0378 12.34180786374820
Epoch: 2026-09-20T08:54Z
TLE epoch observation values (Epoch: 2026-09-20T08:54:14.651Z)
Latitude
24.63036°
Longitude
-81.1333°
Altitude
1,552.546 km
Speed
7.084 km/s
True Right ascension
03h 26m 46s
True Declination
24° 30' 48"
Sunlit
Object was in daylight at epoch
Visualization orbit readout
Latitude
Unknown
Longitude
Unknown
Altitude
Unknown
Speed
Unknown
Apparent Right ascension
Unknown
Apparent Declination
Unknown
Sunlit
N/A
Visualization observer readout
Local Sidereal Time
15:00:37
Azimuth
Unknown
Elevation
Unknown
Doppler factor
Unknown
Orbital elements
Apogee altitude
1,560.28 km
Perigee altitude
1,497.613 km
Semi-major axis
7,907.083 km
Eccentricity
0.00396
Inclination
101.9275°
RAAN
226.1634°
Arg. of periapsis
28.4121°
True anomaly
126.40392°
Mean anomaly
126.0378°
Eccentric anomaly
126.22097°
Mean motion
3.08687 °/min
Orbital period
116.62 mins
BSTAR
-0.00010132
Loading maneuver chart data...
Computing Atmospheric mass density...
Loading historical data...
Loading historical data...
Loading historical data...
Loading historical data...
Loading historical data...
Loading historical data...
Loading historical data...

Documentation

Showing up to 5 results
|